Weather History for Piney Island, NC

Change the Weather History Date:

Saturday, January 26, 2013

  Actual Average (KMRH) Record (KMRH)
Temperature  
Mean Temperature 33 °F -  
Max Temperature 36 °F 55 °F 74 °F (1950)
Min Temperature 30 °F 36 °F 23 °F (1961)
Degree Days  
Heating Degree Days 32    
Moisture  
Dew Point 30 °F    
Average Humidity 85    
Maximum Humidity 93    
Minimum Humidity 79    
Precipitation  
Precipitation 0.00 in - - ()
Sea Level Pressure  
Sea Level Pressure 30.24 in    
Wind  
Wind Speed 8 mph (NNW)    
Max Wind Speed 13 mph    
Max Gust Speed -    
Averages and records for this station are not official NWS values.
T = Trace of Precipitation, MM = Missing Value Source: NWS Daily Summary

Daily Weather History Graph

Daily Weather History Graph

Search for Another Location

Airport:

Trip Planner

Search our weather history database for the weather conditions in past years. The results will help you decide how hot, cold, wet, or windy it might be!

Date:

Astronomy

Jan. 26, 2013 Rise Set
Actual Time 7:08 AM EST 5:28 PM EST
Civil Twilight 6:41 AM EST 5:55 PM EST
Nautical Twilight 6:11 AM EST 6:26 PM EST
Astronomical Twilight 5:41 AM EST 6:56 PM EST
Moon 5:19 PM EST (1/26) 6:26 AM EST (1/26)
Length of Visible Light 11h 14m
Length of Day
10h 20m
Full, 100% of the Moon is Illuminated
Jan 26
Full
Jan 26
Full
Feb 3
Last Quarter
Feb 10
New
Feb 17
First Quarter

Hourly Weather History & Observations

Time (EST) Temp. Windchill Dew Point Humidity Pressure Visibility Wind Dir Wind Speed Gust Speed Precip Events Conditions
12:56 AM 34.0 °F 26.0 °F 30.9 °F 89% 30.14 in - West 10.4 mph - 0.00 in   Mostly Cloudy
1:56 AM 34.0 °F 25.0 °F 30.0 °F 85% 30.14 in - WNW 12.7 mph - N/A   Clear
2:56 AM 34.0 °F 26.6 °F 30.0 °F 85% 30.13 in - WNW 9.2 mph - N/A   Clear
3:56 AM 33.1 °F 27.7 °F 28.9 °F 85% 30.14 in - WNW 5.8 mph - N/A   Clear
4:56 AM 32.0 °F 26.4 °F 28.0 °F 85% 30.15 in - NW 5.8 mph - N/A   Clear
5:38 AM 30.2 °F 24.3 °F 28.4 °F 93% 30.15 in - WNW 5.8 mph - N/A   Partly Cloudy
5:56 AM 30.9 °F 25.2 °F 28.0 °F 89% 30.17 in - NW 5.8 mph - N/A   Clear
6:44 AM 30.2 °F 23.4 °F 28.4 °F 93% 30.16 in - NW 6.9 mph - N/A   Partly Cloudy
6:56 AM 32.0 °F 26.4 °F 28.9 °F 88% 30.18 in - NW 5.8 mph - N/A   Mostly Cloudy
7:56 AM 34.0 °F 27.2 °F 30.9 °F 89% 30.19 in - North 8.1 mph - N/A   Overcast
8:56 AM 35.1 °F 29.3 °F 32.0 °F 89% 30.21 in - North 6.9 mph - N/A   Overcast
9:56 AM 36.0 °F 29.6 °F 30.9 °F 82% 30.23 in - North 8.1 mph - N/A   Overcast
10:56 AM 35.1 °F 28.6 °F 30.9 °F 85% 30.25 in - North 8.1 mph - N/A   Overcast
11:56 AM 35.1 °F 27.4 °F 30.9 °F 85% 30.26 in - North 10.4 mph - N/A   Overcast
12:56 PM 35.1 °F 27.9 °F 30.9 °F 85% 30.24 in - North 9.2 mph - N/A   Overcast
2:56 PM 35.1 °F 27.9 °F 30.9 °F 85% 30.25 in - NNW 9.2 mph - N/A   Overcast
3:56 PM 36.0 °F 29.0 °F 30.9 °F 82% 30.26 in - NNW 9.2 mph - N/A   Overcast
4:56 PM 36.0 °F 29.6 °F 30.9 °F 82% 30.28 in - North 8.1 mph - N/A   Overcast
5:56 PM 36.0 °F 29.6 °F 30.9 °F 82% 30.31 in - NE 8.1 mph - N/A   Overcast
6:56 PM 36.0 °F 30.3 °F 30.9 °F 82% 30.33 in - North 6.9 mph - N/A   Overcast
7:56 PM 36.0 °F 31.1 °F 30.0 °F 79% 30.34 in - North 5.8 mph - N/A   Overcast
8:56 PM 36.0 °F 30.3 °F 30.9 °F 82% 30.35 in - North 6.9 mph - N/A   Overcast
9:56 PM 36.0 °F 29.6 °F 30.9 °F 82% 30.38 in - North 8.1 mph - N/A   Overcast
10:56 PM 35.1 °F 29.3 °F 30.9 °F 85% 30.40 in - North 6.9 mph - N/A   Scattered Clouds
11:56 PM 34.0 °F 28.0 °F 30.0 °F 85% 30.40 in - North 6.9 mph - N/A   Clear